Tracking 21092 objects as of 14-Aug-2020
HD Live streaming from Space Station
objects crossing your sky now
Track the most recent launched group of Starlink satellites

COSMOS 872


10-day predictions
COSMOS 872 is classified as:


NORAD ID: 9589
Int'l Code: 1976-118B
Perigee: 1,405.3 km
Apogee: 1,470.9 km
Inclination: 74.0 °
Period: 114.5 minutes
Semi major axis: 7809 km
RCS: 0.7031 m2 (medium)
Launch date: December 7, 1976
Source: Commonwealth of Independent States (former USSR) (CIS)
Launch site: PLESETSK MISSILE AND SPACE COMPLEX (PKMTR)
aabbcc
Your satellite tracking list
Your tracking list is empty




NASA's NSSDC Master Catalog

Two Line Element Set (TLE):
1  9589U 76118B   20226.71212049 -.00000020 +00000-0 -22668-4 0  9994
2  9589 074.0331 322.7975 0042002 227.1002 285.3890 12.58066575006183
Source of the keplerian elements: AFSPC